sat.trackr.live / text

‹ back to catalog

SUPERVIEW NEO-1 01

NORAD 52320 · 2022-043A

PAYLOAD ACTIVE UNKNOWN

§ Identity

Operator
Country
PRC
Launch date
2022-04-29
Launch site
JSC
Launch vehicle
Mass (kg)
RCS (m²)

External: N2YO · Heavens-Above · Gunter

§ Orbital elements

Epoch: 2026-05-25T04:19:59.517408Z

Period
94.97 min
Inclination
97.3409°
Eccentricity
0.0002288
Mean motion
15.16280106 rev/d
Perigee alt
515.5 km
Apogee alt
518.7 km
Semi-major
6,895.2 km
B*
2.0066e-4
RAAN
218.7004°
Arg perigee
49.6550°
Mean anomaly
310.4882°
Rev number
22,607

§ Raw data

SUPERVIEW NEO-1 011 52320U 22043A   26145.18054997  .00003820  00000+0  20066-3 0  99932 52320  97.3409 218.7004 0002288  49.6550 310.4882 15.16280106226070

JSON: /api/v1/satellites/52320 · /tle

For live sub-satellite position, see the globe view (requires WebGL).

§ Visibility from observer

Set your observer location to see the next 7 days of passes ≥ 10°. The values pass through the URL so the page stays shareable.

No JS? Fill the form by hand. The geolocation button needs JavaScript.